SNUGLITE 2
1 52899U 22065F   26167.62106104  .00000774  00000-0  15573-3 0  9992
2 52899  98.2201 312.4525 0008038  34.6467 325.5258 14.64346784210918
UmKA 1 (RS40S)
1 57172U 23091G   26167.83073451  .00005352  00000-0  24523-3 0  9994
2 57172  97.5049 226.5292 0014236 118.7578 241.5089 15.20815751163957
CubeBel-2 (EU11S)
1 57175U 23091K   26167.85665098  .00011219  00000-0  39842-3 0  9992
2 57175  97.5051 231.0704 0011274 115.6652 244.5753 15.29145153164256
RS-38S
1 57189U 23091Z   26167.82189095  .00014215  00000-0  40697-3 0  9991
2 57189  97.5093 237.2996 0008277  78.7954 281.4219 15.36016864164634
SONATE-2
1 59112U 24043Q   26167.68892774  .00032720  00000-0  42569-3 0  9997
2 59112  97.5532 318.0536 0007039 197.2999 162.8018 15.58684750127816
GRBBeta
1 60237U 24128C   26167.68909538  .00002596  00000-0  18568-3 0  9998
2 60237  61.9884 218.0139 0040716 134.5575 225.8855 15.06636880106193
Curium One
1 60242U 24128H   26167.57510954  .00004997  00000-0  29299-3 0  9992
2 60242  61.9767 207.9432 0039823 130.6909 229.7658 15.12504851106369
ROBUSTA-3A
1 60243U 24128J   26167.60567462  .00004187  00000-0  25309-3 0  9992
2 60243  61.9848 210.3011 0041447 127.8993 232.5862 15.11671493106339
CatSat
1 60246U 24125J   26167.49770833  .00049368  00000-0  63623-3 0  9998
2 60246  97.2079  19.9890 0022367 181.7412 178.3770 15.58572452107289
HYPERVIEW-1G (RS66S)
1 61772U 24199AP  26167.74509406  .00117914  00000-0  76208-3 0  9994
2 61772  97.2865  47.4421 0003695 219.9631 140.1363 15.75736016134601
AO-123
1 61781U 24199AY  26167.83919564  .00006276  00000-0  18284-3 0  9992
2 61781  97.2995  36.5132 0012333 315.5923  44.4331 15.35671634133878
JINJUSat 1B
1 63210U 25052A   26167.68917838  .00012762  00000-0  39628-3 0  9997
2 63210  97.4007  64.4436 0005487  91.7275 268.4596 15.33490601 70024
NUSHSAT 1
1 63211U 25052B   26167.66852669  .00016930  00000-0  48531-3 0  9990
2 63211  97.3984  64.9871 0005216  94.3037 265.8803 15.35954383 70061
TEVEL2-4
1 63213U 25052D   26167.66055269  .00015148  00000-0  45375-3 0  9996
2 63213  97.3905  64.0518 0004854 103.7970 256.3814 15.34595497 70033
TEVEL2-5
1 63214U 25052E   26167.68099411  .00014324  00000-0  43161-3 0  9992
2 63214  97.3904  64.0201 0004781 105.3171 254.8600 15.34422878 70030
TEVEL2-6
1 63215U 25052F   26167.69331356  .00014204  00000-0  42848-3 0  9999
2 63215  97.3910  64.0166 0004685 106.2697 253.9062 15.34387604 70033
TEVEL2-1
1 63217U 25052H   26167.65693069  .00014437  00000-0  44286-3 0  9995
2 63217  97.3879  63.6054 0004751 114.6585 245.5153 15.33853046 70016
TEVEL2-3
1 63218U 25052J   26167.52112230  .00014257  00000-0  43669-3 0  9992
2 63218  97.3885  63.4913 0004703 115.0626 245.1106 15.33904258 69995
TEVEL2-2
1 63219U 25052K   26167.65724747  .00014434  00000-0  44263-3 0  9997
2 63219  97.3883  63.6082 0004715 115.1533 245.0199 15.33861744 70012
TEVEL2-9
1 63237U 25052AD  26167.69930485  .00012673  00000-0  41358-3 0  9994
2 63237  97.3944  63.0262 0007764 132.1574 228.0328 15.31885267 69955
TEVEL2-7
1 63238U 25052AE  26167.67478499  .00012652  00000-0  41668-3 0  9996
2 63238  97.3945  62.9183 0007828 132.5601 227.6303 15.31589641 69947
TEVEL2-8
1 63239U 25052AF  26167.68303146  .00012386  00000-0  40821-3 0  9998
2 63239  97.3946  62.9032 0007849 133.0156 227.1744 15.31573973 69941
SPIRONE
1 66657U 25274H   26167.71899025  .00001361  00000-0  13436-3 0  9994
2 66657  97.7482  97.0171 0012695  22.9303 337.2481 14.93543086 30156
K-HERO
1 66660U 25274L   26167.72371610  .00001444  00000-0  14072-3 0  9993
2 66660  97.7487  97.1821 0014688  26.1853 334.0107 14.93960320 30163
SNUGLITE-III DURI
1 66661U 25274M   26167.71150347  .00001246  00000-0  12202-3 0  9998
2 66661  97.7487  97.1906 0015350  26.9691 333.2323 14.94000985 30167
SAKHACUBE-CHOLBON
1 67290U 25313AU  26167.70092354  .00007921  00000-0  32105-3 0  9993
2 67290  97.3933 242.7415 0008884   7.1471 352.9891 15.24881376 25901
RS95S (QMR-KWT-2)
1 67291U 25313AV  26167.68963839  .00011289  00000-0  43748-3 0  9993
2 67291  97.3932 242.9048 0008273   5.1793 354.9530 15.26282577 25915
Ten-Koh2
1 68261U 25241B   26166.70419506  .00005304  00000-0  23027-3 0  9999
2 68261  51.6697 326.6857 0006067 137.6687 222.4761 15.23889978 14686
JACK-002
1 68417U 26067B   26167.63458326  .00005644  00000-0  26992-3 0  9996
2 68417  97.4571 126.2320 0000242   9.1449 350.9790 15.19388001 11867
DISCO 2
1 68431U 26067R   26167.85325242  .00006771  00000-0  32607-3 0  9998
2 68431  97.4603 126.4365 0002841  44.7727 315.3736 15.19068757 11892
HADES-SA (SpinnyONE)
1 68446U 26067AG  26167.62896507  .00015172  00000-0  72564-3 0  9997
2 68446  97.4411 125.9339 0009435  83.3847 276.8461 15.19043068 11847
PARUS-6U1
1 68456U 26067AS  26167.85874757  .00004499  00000-0  22760-3 0  9999
2 68456  97.4556 126.2272 0007493  72.7678 287.4375 15.17513771 11881
SAL-E
1 68458U 26067AU  26167.85423580  .00006039  00000-0  30219-3 0  9995
2 68458  97.4480 126.1591 0007935  80.0139 280.1989 15.17751005 11882
FSI-SAT 2
1 68792U 26088A   26167.68810654  .00003959  00000-0  26897-3 0  9997
2 68792  97.5074 316.9594 0015806 108.2988 251.9960 15.06834383  8213
OrigamiSat 2
1 68795U 26088D   26167.36631624  .00010644  00000-0  67990-3 0  9991
2 68795  97.5070 316.7792 0016049  83.9310 276.3747 15.08720741  8171
ARICA 2
1 68796U 26088E   26167.36541633  .00004285  00000-0  27847-3 0  9993
2 68796  97.5059 316.7688 0016954  82.7955 277.5201 15.08422218  8176
WASEDA-SAT-ZERO-II
1 68797U 26088F   26167.36124945  .00005707  00000-0  36739-3 0  9997
2 68797  97.5059 316.7732 0016745  82.7707 277.5424 15.08635940  8175
MANGARO-II-Piscus
1 68798U 26088G   26167.68338221  .00003424  00000-0  22082-3 0  9997
2 68798  97.5072 317.1171 0020570  84.0792 276.2780 15.08783908  8228
IO-86
1 40931U          25360.30710720  .00000000  00000-0  12800-3 0    00
2 40931   6.0006 332.5373 0012733 338.8432   8.1437 14.79075515    01
LILIUM-4                
1 71922C 26067AC  26089.50133053 -.00014632  00000+0 -74472-3 0    04
2 71922  97.4497  49.1617 0004341   5.9603 355.7042 15.16896692    16
